STARLINK-32434, 61913

Orbit data source: Space-Track

STARLINK-32434, 61913 is a payload satellite owned by SpaceX/Seattle (US) in LEO that was launched on Mon, 11 Nov 2024 UTC via an FALCON 9 launch vehicle from the Air Force Eastern Test Range (AFETR). Payload-class satellites include a variety of spacecraft equipped with specific instruments for various scientific and technological missions. These include communications satellites like Starlink; space stations such as the ISS; scientific satellites like the Hubble; Earth observation satellites from companies like Planet Labs, Umbra, and HawkEye 360; GPS; miniature CubeSats for education and research; and military/defense satellites.

Loading next visibility...
Identifier
61913, 2024-207B
Orbit
LEO
Last TLE update
10 hours ago
Origin
Manufacturer
SpaceX/Seattle
Mission
Operational Commercial Communications
Bus & Motor
STARLINK V2M, Unknown motor
Mass
730 kg wet, ~700 kg dry
Launch date (UTC)
2024-11-11 (8 months ago)
Launch vehicle
FALCON 9
Launch site
Air Force Eastern Test Range (AFETR)
Object type
Payload
Rocket body
Debris
Shape & HBR
Box + 2 Pan, 29 m
Radar Cross Section
33.884 m², Large (>1 m²)

Expand to show TLE details & history

TLE from 10 hours ago
0 STARLINK-32434
1 61913U 24207B   25186.43176086  .00014586  00000-0  53838-3 0  9996
2 61913  42.9986 238.4350 0001469 282.7491  77.3196 15.27588895 36907
Epoch: 2025-07-05T10:21Z
TLE epoch observation values (Epoch: 2025-07-05T10:21:44.138Z)
Latitude
-0.00004°
Longitude
159.33116°
Altitude
482.577 km
Speed
7.626 km/s
True Right ascension
15h 53m 44s
True Declination
0° 00' 00"
Sunlit
Object was in full shadow at epoch
Visualization orbit readout
Latitude
-9.69662°
Longitude
-12.58469°
Altitude
484.547 km
Speed
7.624 km/s
Apparent Right ascension
01h 29m 33s
Apparent Declination
-40° 05' 16"
Sunlit
Object is in daylight
Visualization observer readout
Local Sidereal Time
08:33:19
Azimuth
243.981° WSW
Elevation
-35.054°
Doppler factor
1
Orbital elements
Apogee altitude
485.976 km
Perigee altitude
483.96 km
Semi-major axis
6,863.105 km
Eccentricity
0.00015
Inclination
42.9986°
RAAN
238.435°
Arg. of periapsis
282.7491°
True anomaly
Unknown
Mean anomaly
77.3196°
Eccentric anomaly
Unknown
Mean motion
3.81735 °/min
Orbital period
94.31 mins
BSTAR
0.00053838
Loading maneuver chart data...
Loading SW <> Apogee altitude chart data...
Loading historical data...
Loading historical data...
Loading historical data...
Loading historical data...
Loading historical data...
Loading historical data...
Loading historical data...

STARLINK-32434 Visibility forecast

Observer location: undefined°, undefined°

Span
Click to sort rows by Start time (UTC) header in descending order
Start Az.
Max El. time (UTC)
Max El. Az.
Max El.
End time (UTC)
End Az.
6 mins2025-07-06 06:58:25.605Z227.365° WSW2025-07-06 07:01:25.605Z173.388° S36.094°2025-07-06 07:04:25.605Z83.208° E
5 mins2025-07-06 08:38:25.605Z275.427° WNW2025-07-06 08:40:25.605Z326.426° NNW40.141°2025-07-06 08:43:25.605Z67.728° E
6 mins2025-07-06 10:17:25.605Z293.353° NW2025-07-06 10:20:25.605Z44.192° NE38.158°2025-07-06 10:23:25.605Z87.955° E
6 mins2025-07-06 11:56:25.605Z277.584° WNW2025-07-06 11:58:25.605Z236.469° WSW37.28°2025-07-06 12:02:25.605Z128.356° SE
|